User: anonymous   Login
Location: Unspecified
(0.0000°N, 0.0000°E)
Time: 01:10:09
(UTC+00:00)
Language:

STARLINK-3847 - Orbit

View from above orbital plane
View from above orbital plane
View from above satellite
View from above satellite

Ground track
Ground track

The orbit is defined by the following mean orbital elements,

1 52333U          26145.49334885 +.00000000 +00000-0 +15924-3 0 00005
2 52333  53.2136 224.3332 0001484  92.8398 267.2764 15.08859301    07
Epoch (UTC): 25 May 2026 11:50:25
Eccentricity: 0.0001484
inclination: 53.2136°
perigee height: 539 km
apogee height: 541 km
right ascension of ascending node: 224.3332°
argument of perigee: 92.8398°
revolutions per day: 15.08859301
mean anomaly at epoch: 267.2764°

The dashed part of the orbit path shows where the satellite is in the earth's shadow,  

DLR